Weather History for Lordsburg, NM

Change the Weather History Date:

Sunday, September 16, 2012

  Actual Average Record
Temperature  
Mean Temperature 68 °F -  
Max Temperature 89 °F 88 °F 84 °F (2013)
Min Temperature 48 °F 55 °F 62 °F (2014)
Cooling Degree Days 4    
Growing Degree Days 18 (Base 50)    
Moisture  
Dew Point 36 °F    
Average Humidity 35    
Maximum Humidity 76    
Minimum Humidity 9    
Precipitation  
Precipitation 0.00 in - - ()
Sea Level Pressure  
Sea Level Pressure 30.16 in    
Wind  
Wind Speed 6 mph ()    
Max Wind Speed 15 mph    
Max Gust Speed 24 mph    
Visibility 10.0 miles    
Events      
Averages and records for this station are not official NWS values.
T = Trace of Precipitation, MM = Missing Value Source: Averaged Metar Reports

Daily Weather History Graph

Daily Weather History Graph

Search for Another Location

Airport:

Trip Planner

Search our weather history database for the weather conditions in past years. The results will help you decide how hot, cold, wet, or windy it might be!

Date:

Astronomy

Sep. 16, 2012 Rise Set
Actual Time 6:59 AM MDT 7:18 PM MDT
Civil Twilight 6:34 AM MDT 7:43 PM MDT
Nautical Twilight 6:06 AM MDT 8:11 PM MDT
Astronomical Twilight 5:37 AM MDT 8:40 PM MDT
Moon 7:36 AM MDT (9/16) 7:33 PM MDT (9/16)
Length of Visible Light 13h 08m
Length of Day
12h 19m
New Moon, 1% of the Moon is Illuminated
Sep 16
New Moon
Sep 22
First Quarter
Sep 29
Full
Oct 8
Last Quarter
Oct 15
New

Hourly Weather History & Observations

Time (MDT) Temp. Dew Point Humidity Pressure Visibility Wind Dir Wind Speed Gust Speed Precip Events Conditions
12:15 AM 59.0 °F 37.4 °F 45% 30.23 in 10.0 mi South 5.8 mph - N/A   Clear
12:35 AM 59.0 °F 37.4 °F 45% 30.23 in 10.0 mi South 3.5 mph - N/A   Clear
12:55 AM 57.2 °F 37.4 °F 48% 30.23 in 10.0 mi Calm Calm - N/A   Clear
1:15 AM 57.2 °F 39.2 °F 51% 30.23 in 10.0 mi SSE 3.5 mph - N/A   Clear
1:35 AM 55.4 °F 39.2 °F 54% 30.22 in 10.0 mi SSE 3.5 mph - N/A   Clear
1:55 AM 55.4 °F 39.2 °F 54% 30.22 in 10.0 mi South 3.5 mph - N/A   Clear
2:15 AM 53.6 °F 41.0 °F 62% 30.21 in 10.0 mi Calm Calm - N/A   Clear
2:35 AM 53.6 °F 41.0 °F 62% 30.21 in 10.0 mi South 3.5 mph - N/A   Clear
2:55 AM 53.6 °F 41.0 °F 62% 30.21 in 10.0 mi South 3.5 mph - N/A   Clear
3:15 AM 53.6 °F 41.0 °F 62% 30.20 in 10.0 mi South 3.5 mph - N/A   Clear
3:35 AM 53.6 °F 41.0 °F 62% 30.20 in 10.0 mi South 3.5 mph - N/A   Clear
3:55 AM 51.8 °F 41.0 °F 67% 30.20 in 10.0 mi Calm Calm - N/A   Clear
4:15 AM 51.8 °F 41.0 °F 67% 30.20 in 10.0 mi Calm Calm - N/A   Clear
4:35 AM 51.8 °F 41.0 °F 67% 30.20 in 10.0 mi NW 3.5 mph - N/A   Clear
4:55 AM 51.8 °F 41.0 °F 67% 30.19 in 10.0 mi NNW 3.5 mph - N/A   Clear
5:15 AM 51.8 °F 41.0 °F 67% 30.20 in 10.0 mi Calm Calm - N/A   Clear
5:35 AM 50.0 °F 41.0 °F 71% 30.20 in 10.0 mi Calm Calm - N/A   Clear
5:55 AM 50.0 °F 41.0 °F 71% 30.21 in 10.0 mi Calm Calm - N/A   Clear
6:15 AM 50.0 °F 41.0 °F 71% 30.21 in 10.0 mi Calm Calm - N/A   Clear
6:55 AM 48.2 °F 41.0 °F 76% 30.21 in 10.0 mi WNW 3.5 mph - N/A   Clear
7:15 AM 50.0 °F 39.2 °F 66% 30.21 in 10.0 mi NNW 3.5 mph - N/A   Clear
7:35 AM 51.8 °F 39.2 °F 62% 30.21 in 10.0 mi NW 5.8 mph - N/A   Clear
7:55 AM 53.6 °F 41.0 °F 62% 30.21 in 10.0 mi WNW 4.6 mph - N/A   Clear
8:15 AM 59.0 °F 42.8 °F 55% 30.22 in 10.0 mi NW 5.8 mph - N/A   Clear
8:35 AM 60.8 °F 42.8 °F 52% 30.22 in 10.0 mi NW 5.8 mph - N/A   Clear
8:55 AM 62.6 °F 44.6 °F 52% 30.23 in 10.0 mi WNW 6.9 mph - N/A   Clear
9:15 AM 68.0 °F 42.8 °F 40% 30.23 in 10.0 mi WNW 8.1 mph - N/A   Clear
9:35 AM 69.8 °F 41.0 °F 35% 30.23 in 10.0 mi WNW 8.1 mph - N/A   Clear
9:55 AM 69.8 °F 41.0 °F 35% 30.23 in 10.0 mi WNW 8.1 mph - N/A   Clear
10:15 AM 71.6 °F 42.8 °F 35% 30.23 in 10.0 mi WNW 9.2 mph - N/A   Clear
10:35 AM 71.6 °F 41.0 °F 33% 30.23 in 10.0 mi WNW 8.1 mph - N/A   Clear
10:55 AM 73.4 °F 41.0 °F 31% 30.23 in 10.0 mi WNW 8.1 mph - N/A   Clear
11:15 AM 77.0 °F 41.0 °F 28% 30.21 in 10.0 mi NW 12.7 mph - N/A   Clear
11:35 AM 78.8 °F 41.0 °F 26% 30.21 in 10.0 mi WNW 13.8 mph 20.7 mph N/A   Clear
11:55 AM 78.8 °F 41.0 °F 26% 30.20 in 10.0 mi WNW 15.0 mph 19.6 mph N/A   Clear
12:15 PM 80.6 °F 39.2 °F 23% 30.20 in 10.0 mi NW 11.5 mph 20.7 mph N/A   Clear
12:35 PM 80.6 °F 39.2 °F 23% 30.19 in 10.0 mi WNW 12.7 mph 24.2 mph N/A   Clear
12:55 PM 82.4 °F 39.2 °F 21% 30.18 in 10.0 mi WNW 13.8 mph 18.4 mph N/A   Clear
1:15 PM 84.2 °F 37.4 °F 19% 30.17 in 10.0 mi NW 11.5 mph 16.1 mph N/A   Clear
1:35 PM 86.0 °F 37.4 °F 18% 30.16 in 10.0 mi NW 12.7 mph 18.4 mph N/A   Clear
1:55 PM 87.8 °F 35.6 °F 16% 30.15 in 10.0 mi NNW 11.5 mph 19.6 mph N/A   Clear
2:15 PM 87.8 °F 35.6 °F 16% 30.14 in 10.0 mi NW 9.2 mph 19.6 mph N/A   Clear
2:35 PM 89.6 °F 33.8 °F 14% 30.14 in 10.0 mi NW 11.5 mph 19.6 mph N/A   Clear
2:55 PM 89.6 °F 32.0 °F 13% 30.13 in 10.0 mi NW 15.0 mph 19.6 mph N/A   Clear
3:15 PM 89.6 °F 32.0 °F 13% 30.12 in 10.0 mi NW 13.8 mph 20.7 mph N/A   Clear
3:35 PM 89.6 °F 32.0 °F 13% 30.11 in 10.0 mi WNW 11.5 mph 21.9 mph N/A   Clear
3:55 PM 89.6 °F 32.0 °F 13% 30.10 in 10.0 mi NNW 9.2 mph 18.4 mph N/A   Clear
4:15 PM 89.6 °F 28.4 °F 11% 30.10 in 10.0 mi West 15.0 mph 23.0 mph N/A   Clear
4:35 PM 89.6 °F 26.6 °F 10% 30.09 in 10.0 mi WNW 13.8 mph 18.4 mph N/A   Clear
4:55 PM 89.6 °F 28.4 °F 11% 30.09 in 10.0 mi West 13.8 mph 19.6 mph N/A   Clear
5:15 PM 89.6 °F 26.6 °F 10% 30.08 in 10.0 mi WNW 13.8 mph 18.4 mph N/A   Clear
5:35 PM 89.6 °F 24.8 °F 10% 30.09 in 10.0 mi WNW 12.7 mph 20.7 mph N/A   Clear
5:55 PM 89.6 °F 24.8 °F 10% 30.08 in 10.0 mi West 10.4 mph - N/A   Clear
6:15 PM 87.8 °F 21.2 °F 9% 30.08 in 10.0 mi West 15.0 mph 20.7 mph N/A   Clear
6:35 PM 87.8 °F 21.2 °F 9% 30.08 in 10.0 mi West 12.7 mph - N/A   Clear
6:55 PM 86.0 °F 26.6 °F 12% 30.08 in 10.0 mi West 12.7 mph - N/A   Clear
7:15 PM 82.4 °F 28.4 °F 14% 30.08 in 10.0 mi West 8.1 mph - N/A   Clear
7:35 PM 78.8 °F 28.4 °F 16% 30.08 in 10.0 mi West 8.1 mph - N/A   Clear
7:55 PM 78.8 °F 30.2 °F 17% 30.08 in 10.0 mi West 8.1 mph - N/A   Clear
8:15 PM 77.0 °F 30.2 °F 18% 30.08 in 10.0 mi West 8.1 mph - N/A   Clear
8:35 PM 73.4 °F 30.2 °F 20% 30.10 in 10.0 mi West 6.9 mph - N/A   Clear
8:55 PM 71.6 °F 30.2 °F 22% 30.10 in 10.0 mi West 6.9 mph - N/A   Clear
9:15 PM 71.6 °F 32.0 °F 23% 30.10 in 10.0 mi West 6.9 mph - N/A   Clear
9:35 PM 71.6 °F 32.0 °F 23% 30.11 in 10.0 mi NW 3.5 mph - N/A   Clear
9:55 PM 69.8 °F 32.0 °F 25% 30.11 in 10.0 mi West 6.9 mph - N/A   Clear
10:15 PM 69.8 °F 32.0 °F 25% 30.11 in 10.0 mi North 4.6 mph - N/A   Clear
10:35 PM 68.0 °F 32.0 °F 26% 30.12 in 10.0 mi North 3.5 mph - N/A   Clear
10:55 PM 64.4 °F 32.0 °F 30% 30.12 in 10.0 mi NNW 4.6 mph - N/A   Clear
11:15 PM 64.4 °F 32.0 °F 30% 30.12 in 10.0 mi WNW 5.8 mph - N/A   Clear
11:35 PM 62.6 °F 33.8 °F 34% 30.12 in 10.0 mi WNW 5.8 mph - N/A   Clear
11:55 PM 64.4 °F 32.0 °F 30% 30.12 in 10.0 mi West 6.9 mph - N/A   Clear